Overview Statistics Trail Chart Weather Telemetry Raw packets
 

This is the latest recevied weather packets stored in our database for station/object SV1JSO-13. If no packets are shown the sender has not sent any weather packets the latest 10 day(s).

<< 92 93 94 95 96 97 98 >>
Time Temp. Humidity Pressure Rain* Wind** Luminosity Snow
1787979900 25° C 46% 1011 hPa 0 mm - 85 W/m² -
1787979600 25° C 47% 1011 hPa 0 mm - 75 W/m² -
1787979300 25° C 47% 1011.1 hPa 0 mm - 68 W/m² -
1787979000 25° C 46% 1011 hPa 0 mm - 60 W/m² -
1787978700 25° C 46% 1010.8 hPa 0 mm - 55 W/m² -
1787978400 25° C 44% 1010.8 hPa 0 mm - 49 W/m² -
1787978100 25° C 45% 1010.8 hPa 0 mm - 44 W/m² -
1787977800 25° C 45% 1010.7 hPa 0 mm - 38 W/m² -
1787977500 25° C 46% 1010.6 hPa 0 mm - 33 W/m² -
1787977200 25° C 46% 1010.6 hPa 0 mm - 28 W/m² -
1787976900 25° C 46% 1010.6 hPa 0 mm - 22 W/m² -
1787976600 25° C 46% 1010.5 hPa 0 mm - 17 W/m² -
1787976300 25° C 46% 1010.4 hPa 0 mm - 12 W/m² -
1787976000 25° C 46% 1010.4 hPa 0 mm - 8 W/m² -
1787975700 25° C 46% 1010.3 hPa 0 mm - 5 W/m² -
1787975400 25° C 45% 1010.4 hPa 0 mm - 3 W/m² -
1787975100 25° C 45% 1010.3 hPa 0 mm - 1 W/m² -
1787974800 25° C 45% 1010.3 hPa 0 mm - 1 W/m² -
1787974500 25° C 44% 1010.2 hPa 0 mm - 0 W/m² -
1787974200 25° C 43% 1010.2 hPa 0 mm - 0 W/m² -
1787973900 25.56° C 42% 1010.2 hPa 0 mm - 0 W/m² -
1787973600 25.56° C 41% 1010.3 hPa 0 mm - 0 W/m² -
1787973309 25.56° C 40% 1010.1 hPa 0 mm - 0 W/m² -
1787973000 25.56° C 40% 1010.1 hPa 0 mm - 0 W/m² -
1787972700 25.56° C 40% 1010 hPa 0 mm - 0 W/m² -

* Rain latest hour (hover to see other rain measurements)
** Current wind speed in m/s (hover to see current wind gust speed)